Weather History for LGAL - October, 2013

Change the Weather History Date:

Monday, October 21, 2013

  Actual Average Record
Temperature  
Mean Temperature 56 °F -  
Max Temperature 67 °F 62 °F 75 °F (2004)
Min Temperature 45 °F 46 °F 33 °F (1997)
Degree Days  
Heating Degree Days 9    
Growing Degree Days 6 (Base 50)    
Moisture  
Dew Point 50 °F    
Average Humidity 76    
Maximum Humidity 100    
Minimum Humidity 52    
Precipitation  
Precipitation 0.00 in 0.09 in - ()
Sea Level Pressure  
Sea Level Pressure 30.26 in    
Wind  
Wind Speed 2 mph ()    
Max Wind Speed 9 mph    
Max Gust Speed -    
Visibility 6.1 miles    
Events      
Averages and records for this station are not official NWS values.
T = Trace of Precipitation, MM = Missing Value Source: Averaged Metar Reports

Daily Weather History Graph

Daily Weather History Graph

Search for Another Location

Airport or City:

Trip Planner

Search our weather history database for the weather conditions in past years. The results will help you decide how hot, cold, wet, or windy it might be!

Date:

Astronomy

Oct. 21, 2013 Rise Set
Actual Time 7:34 AM EEST 6:26 PM EEST
Civil Twilight 7:06 AM EEST 6:54 PM EEST
Nautical Twilight 6:34 AM EEST 7:26 PM EEST
Astronomical Twilight 6:02 AM EEST 7:58 PM EEST
Moon 8:04 PM EEST (10/21) 9:51 AM EEST (10/21)
Length of Visible Light 11h 48m
Length of Day
10h 52m
Waning Gibbous, 94% of the Moon is Illuminated
Oct 21
Waning Gibbous
Oct 27
Last Quarter
Nov 3
New
Nov 10
First Quarter
Nov 17
Full

Hourly Weather History & Observations

Time (EEST) Temp. Dew Point Humidity Pressure Visibility Wind Dir Wind Speed Gust Speed Precip Events Conditions
4:50 AM 46.4 °F 41.0 °F 81% 30.30 in - Calm Calm - N/A   Clear
5:20 AM 46.4 °F 41.0 °F 81% 30.30 in - Calm Calm - N/A   Clear
5:50 AM 46.4 °F 44.6 °F 93% 30.30 in - Calm Calm - N/A   Clear
6:20 AM 46.4 °F 44.6 °F 93% 30.30 in - Calm Calm - N/A   Clear
6:50 AM 44.6 °F 42.8 °F 93% 30.30 in - Calm Calm - N/A   Clear
7:20 AM 44.6 °F 42.8 °F 93% 30.30 in - Calm Calm - N/A   Clear
7:50 AM 44.6 °F 44.6 °F 100% 30.27 in 6.2 mi Calm Calm - N/A   Partly Cloudy
8:20 AM 46.4 °F 44.6 °F 93% 30.27 in 6.2 mi Calm Calm - N/A   Partly Cloudy
8:50 AM 50.0 °F 46.4 °F 87% 30.30 in - Calm Calm - N/A   Clear
9:00 AM 50 °F 46 °F 81% 30.31 in 6 mi Calm Calm - -  
9:20 AM 51.8 °F 46.4 °F 82% 30.30 in - Calm Calm - N/A   Clear
9:50 AM 55.4 °F 50.0 °F 82% 30.30 in - Calm Calm - N/A   Clear
10:20 AM 57.2 °F 50.0 °F 77% 30.30 in - Calm Calm - N/A   Clear
10:50 AM 57.2 °F 51.8 °F 82% 30.30 in - East 4.6 mph - N/A   Clear
11:20 AM 59.0 °F 51.8 °F 77% 30.30 in - East 5.8 mph - N/A   Clear
11:50 AM 64.4 °F 48.2 °F 56% 30.30 in - East 5.8 mph - N/A   Clear
12:20 PM 64.4 °F 48.2 °F 56% 30.30 in - SE 5.8 mph - N/A   Clear
12:50 PM 66.2 °F 48.2 °F 52% 30.30 in - SSE 9.2 mph - N/A   Clear
1:20 PM 66.2 °F 48.2 °F 52% 30.30 in - South 5.8 mph - N/A   Clear
1:50 PM 64.4 °F 50.0 °F 59% 30.27 in - South 5.8 mph - N/A   Clear
2:20 PM 64.4 °F 50.0 °F 59% 30.27 in - SSW 6.9 mph - N/A   Clear
2:50 PM 64.4 °F 50.0 °F 59% 30.24 in - SSW 6.9 mph - N/A   Clear
3:00 PM 64 °F 51 °F 53% 30.25 in 6 mi WSW 6.9 mph - -  
3:20 PM 66.2 °F 50.0 °F 56% 30.24 in - SW 8.1 mph - N/A   Clear
3:50 PM 68.0 °F 51.8 °F 56% 30.24 in - SW 8.1 mph - N/A   Clear
4:20 PM 66.2 °F 53.6 °F 64% 30.24 in - SW 6.9 mph - N/A   Clear
4:50 PM 66.2 °F 53.6 °F 64% 30.21 in - WSW 6.9 mph - N/A   Clear
5:20 PM 66.2 °F 53.6 °F 64% 30.21 in - WSW 6.9 mph - N/A   Clear
5:50 PM 66.2 °F 55.4 °F 68% 30.24 in - WSW 6.9 mph - N/A   Clear
6:20 PM 64.4 °F 55.4 °F 73% 30.24 in - WSW 4.6 mph - N/A   Clear
6:50 PM 64.4 °F 55.4 °F 73% 30.24 in - West 4.6 mph - N/A   Clear
7:20 PM 62.6 °F 53.6 °F 72% 30.24 in - Variable 2.3 mph - N/A   Clear
7:50 PM 62.6 °F 53.6 °F 72% 30.24 in - Calm Calm - N/A   Clear
8:20 PM 60.8 °F 53.6 °F 77% 30.21 in - Calm Calm - N/A   Clear
8:50 PM 57.2 °F 55.4 °F 94% 30.21 in - Calm Calm - N/A   Clear
9:00 PM 58 °F 56 °F 89% 30.24 in 6 mi Calm Calm - -  
9:20 PM 57.2 °F 55.4 °F 94% 30.21 in - Calm Calm - N/A   Clear
9:50 PM 55.4 °F 53.6 °F 94% 30.21 in - Calm Calm - N/A   Clear
10:20 PM 55.4 °F 53.6 °F 94% 30.21 in - Calm Calm - N/A   Clear
10:50 PM 55.4 °F 53.6 °F 94% 30.21 in - Calm Calm - N/A   Clear